Bierset, Belgium

4:38 AM CEST on October 17, 2017 (GMT +0200)
Liege

Weather History for EBLG - March, 2013

Change the Weather History Date:

Friday, March 8, 2013

  Actual Average Record
Temperature  
Mean Temperature 54 °F -  
Max Temperature 59 °F 51 °F 64 °F (2014)
Min Temperature 48 °F 38 °F 26 °F (2016)
Degree Days  
Heating Degree Days 12    
Growing Degree Days 4 (Base 50)    
Moisture  
Dew Point 47 °F    
Average Humidity 81    
Maximum Humidity 94    
Minimum Humidity 51    
Precipitation  
Precipitation 0.00 in - - ()
Sea Level Pressure  
Sea Level Pressure 29.45 in    
Wind  
Wind Speed 6 mph ()    
Max Wind Speed 12 mph    
Max Gust Speed -    
Visibility 5.7 miles    
Events Rain    
Averages and records for this station are not official NWS values.
T = Trace of Precipitation, MM = Missing Value Source: Averaged Metar Reports

Daily Weather History Graph

Daily Weather History Graph

Search for Another Location

Airport or City:

Trip Planner

Search our weather history database for the weather conditions in past years. The results will help you decide how hot, cold, wet, or windy it might be!

Date:

Astronomy

Mar. 08, 2013 Rise Set
Actual Time 7:07 AM CET 6:31 PM CET
Civil Twilight 6:34 AM CET 7:04 PM CET
Nautical Twilight 5:56 AM CET 7:42 PM CET
Astronomical Twilight 5:18 AM CET 8:20 PM CET
Moon 4:59 AM CET (3/8) 2:51 PM CET (3/8)
Length of Visible Light 12h 29m
Length of Day
11h 24m
Waning Crescent, 14% of the Moon is Illuminated
Mar 8
Waning Crescent
Mar 11
New
Mar 19
First Quarter
Mar 27
Full
Apr 3
Last Quarter

Hourly Weather History & Observations

Time (CET) Temp. Dew Point Humidity Pressure Visibility Wind Dir Wind Speed Gust Speed Precip Events Conditions
12:20 AM 50.0 °F 48.2 °F 94% 29.47 in 5.0 mi SE 4.6 mph - N/A   Mostly Cloudy
12:50 AM 50.0 °F 48.2 °F 94% 29.47 in 5.0 mi SSE 6.9 mph - N/A   Mostly Cloudy
1:00 AM 50 °F 48 °F 92% 29.48 in 5 mi SSE 6.7 mph - - Rain Light Rain
1:20 AM 50.0 °F 48.2 °F 94% 29.47 in 5.0 mi SSE 5.8 mph - N/A   Mostly Cloudy
1:50 AM 50.0 °F 48.2 °F 94% 29.47 in 5.0 mi SE 6.9 mph - N/A   Mostly Cloudy
2:20 AM 50.0 °F 48.2 °F 94% 29.47 in 4.3 mi SE 5.8 mph - N/A   Mostly Cloudy
2:50 AM 48.2 °F 46.4 °F 93% 29.47 in 3.1 mi ESE 6.9 mph - N/A   Scattered Clouds
3:20 AM 50.0 °F 46.4 °F 87% 29.44 in - ESE 6.9 mph - N/A   Scattered Clouds
3:50 AM 50.0 °F 46.4 °F 87% 29.44 in - ESE 8.1 mph - N/A   Scattered Clouds
4:00 AM 49 °F 47 °F 90% 29.47 in 2 mi ESE 6.7 mph - -   Mist
4:20 AM 50.0 °F 46.4 °F 87% 29.44 in - SE 6.9 mph - N/A   Scattered Clouds
4:50 AM 50.0 °F 48.2 °F 94% 29.44 in - SE 8.1 mph - N/A   Scattered Clouds
5:20 AM 50.0 °F 46.4 °F 87% 29.44 in - SE 8.1 mph - N/A   Partly Cloudy
5:50 AM 50.0 °F 46.4 °F 87% 29.44 in - SE 9.2 mph - N/A   Partly Cloudy
6:20 AM 50.0 °F 46.4 °F 87% 29.44 in 2.5 mi SE 9.2 mph - N/A   Partly Cloudy
6:50 AM 48.2 °F 46.4 °F 93% 29.44 in 2.5 mi SE 6.9 mph - N/A   Partly Cloudy
7:00 AM 49 °F 46 °F 87% 29.45 in 2 mi SE 6.7 mph - -   Mist
7:20 AM 50.0 °F 46.4 °F 87% 29.44 in 3.1 mi ESE 4.6 mph - N/A   Partly Cloudy
7:50 AM 48.2 °F 46.4 °F 93% 29.44 in 3.1 mi SE 6.9 mph - N/A   Partly Cloudy
8:20 AM 50.0 °F 46.4 °F 87% 29.44 in 4.3 mi SE 6.9 mph - N/A   Partly Cloudy
8:50 AM 51.8 °F 46.4 °F 82% 29.44 in 5.0 mi SE 4.6 mph - N/A   Partly Cloudy
9:20 AM 51.8 °F 46.4 °F 82% 29.44 in 5.0 mi ESE 4.6 mph - N/A   Partly Cloudy
9:50 AM 51.8 °F 48.2 °F 88% 29.44 in 5.6 mi ESE 5.8 mph - N/A   Partly Cloudy
10:00 AM 53 °F 47 °F 75% 29.46 in 6 mi ESE 6.7 mph - -   Scattered Clouds
10:20 AM 55.4 °F 48.2 °F 77% 29.44 in 6.2 mi SE 9.2 mph - N/A   Partly Cloudy
10:50 AM 55.4 °F 46.4 °F 72% 29.44 in 6.2 mi SE 10.4 mph - N/A   Partly Cloudy
11:20 AM 57.2 °F 46.4 °F 67% 29.44 in 6.2 mi SE 9.2 mph - N/A   Partly Cloudy
11:50 AM 59.0 °F 46.4 °F 63% 29.44 in 6.2 mi South 8.1 mph - N/A   Partly Cloudy
12:20 PM 59.0 °F 48.2 °F 67% 29.44 in 6.2 mi South 5.8 mph - N/A   Partly Cloudy
12:50 PM 57.2 °F 46.4 °F 67% 29.44 in 6.2 mi South 5.8 mph - N/A   Partly Cloudy
1:00 PM 58 °F 47 °F 58% 29.46 in 12 mi South 6.7 mph - -   Scattered Clouds
1:20 PM 57.2 °F 46.4 °F 67% 29.44 in 6.2 mi South 5.8 mph - N/A   Partly Cloudy
1:50 PM 59.0 °F 46.4 °F 63% 29.44 in 6.2 mi South 3.5 mph - N/A   Partly Cloudy
2:20 PM 59.0 °F 44.6 °F 59% 29.44 in 6.2 mi SE 6.9 mph - N/A   Partly Cloudy
2:50 PM 59.0 °F 44.6 °F 59% 29.44 in 6.2 mi South 8.1 mph - N/A   Partly Cloudy
3:20 PM 59.0 °F 44.6 °F 59% 29.44 in 6.2 mi South 9.2 mph - N/A   Partly Cloudy
3:50 PM 59.0 °F 44.6 °F 59% 29.44 in 6.2 mi South 8.1 mph - N/A   Scattered Clouds
4:00 PM 58 °F 45 °F 51% 29.46 in 14 mi South 8.9 mph - -   Partly Cloudy
4:20 PM 57.2 °F 46.4 °F 67% 29.44 in 6.2 mi South 9.2 mph - N/A   Mostly Cloudy
4:50 PM 57.2 °F 46.4 °F 67% 29.44 in 6.2 mi South 5.8 mph - N/A   Mostly Cloudy
5:20 PM 57.2 °F 46.4 °F 67% 29.44 in 6.2 mi South 11.5 mph - N/A Rain Light Rain
5:50 PM 55.4 °F 48.2 °F 77% 29.47 in 6.2 mi South 10.4 mph - N/A Rain Light Rain
6:20 PM 55.4 °F 48.2 °F 77% 29.47 in 6.2 mi South 6.9 mph - N/A Rain Light Rain
6:50 PM 53.6 °F 48.2 °F 82% 29.47 in 6.2 mi South 6.9 mph - N/A   Mostly Cloudy
7:00 PM 54 °F 49 °F 76% 29.49 in 9 mi South 6.7 mph - - Rain Light Rain
7:20 PM 53.6 °F 48.2 °F 82% 29.47 in 6.2 mi South 9.2 mph - N/A Rain Light Rain
7:50 PM 51.8 °F 50.0 °F 94% 29.47 in 4.3 mi South 9.2 mph - N/A Rain Light Rain
8:20 PM 51.8 °F 50.0 °F 94% 29.47 in 6.2 mi SSE 6.9 mph - N/A   Mostly Cloudy
8:50 PM 51.8 °F 50.0 °F 94% 29.47 in 6.2 mi SSE 8.1 mph - N/A Rain Light Rain
9:20 PM 51.8 °F 50.0 °F 94% 29.47 in 6.2 mi SSE 6.9 mph - N/A Rain Light Rain
9:50 PM 51.8 °F 50.0 °F 94% 29.47 in 6.2 mi SSE 8.1 mph - N/A Rain Light Rain
10:00 PM 52 °F 49 °F 87% 29.48 in 6 mi SSE 6.7 mph - - Rain Light Rain
10:20 PM 51.8 °F 50.0 °F 94% 29.47 in 6.2 mi SSE 6.9 mph - N/A   Partly Cloudy
10:50 PM 51.8 °F 50.0 °F 94% 29.47 in 6.2 mi South 6.9 mph - N/A   Mostly Cloudy
11:20 PM 51.8 °F 48.2 °F 88% 29.47 in 6.2 mi SSW 10.4 mph - N/A   Mostly Cloudy
11:50 PM 50.0 °F 46.4 °F 87% 29.47 in 6.2 mi South 9.2 mph - N/A   Mostly Cloudy